,,,PA_Meas_PMT16A,,PR_Meas_QMR101_102,,RH_Meas_QMH101,,SR_Meas_QMS101,,TA_Meas_QMH101,,GenWind,,GenWind,
date,time,status,PA,status,PR,status,RH,status,SR,status,TA,status,DirAvg,status,SpdAvg,
2010-08-19, 00:00:04,VALID,1004.47,VALID,0,INVALID,119.079,VALID,0.100563,VALID,25.6097,VALID,80,VALID,0.237109,
2010-08-19, 00:01:04,VALID,1004.44,VALID,0,INVALID,119.003,VALID,0,VALID,25.6681,VALID,31,VALID,0.474219,
2010-08-19, 00:02:04,VALID,1004.41,VALID,0,INVALID,118.812,VALID,0,VALID,25.7071,VALID,5,VALID,0.805078,
2010-08-19, 00:03:04,VALID,1004.39,VALID,0,INVALID,118.545,VALID,0,VALID,25.7071,VALID,33,VALID,0.4875,
2010-08-19, 00:04:04,VALID,1004.38,VALID,0,INVALID,118.324,VALID,0,VALID,25.709,VALID,40,VALID,0.444531,
2010-08-19, 00:05:04,VALID,1004.36,VALID,0,INVALID,118.301,VALID,0,VALID,25.7071,VALID,28,VALID,0.521484,
2010-08-19, 00:06:04,VALID,1004.37,VALID,0,INVALID,118.202,VALID,0.100563,VALID,25.7265,VALID,28,VALID,0.446484,
2010-08-19, 00:07:04,VALID,1004.33,VALID,0,INVALID,118.087,VALID,0,VALID,25.7265,VALID,57,VALID,0.336328,
2010-08-19, 00:08:04,VALID,1004.34,VALID,0,INVALID,118.019,VALID,0,VALID,25.7265,VALID,74,VALID,0.413672,
2010-08-19, 00:09:04,VALID,1004.34,VALID,0,INVALID,118.026,VALID,0.100563,VALID,25.7265,VALID,26,VALID,0.247656,
2010-08-19, 00:10:04,VALID,1004.34,VALID,0,INVALID,117.325,VALID,0,VALID,25.748,VALID,44,VALID,0.663281,
2010-08-19, 00:11:04,VALID,1004.31,VALID,0,INVALID,116.737,VALID,0,VALID,25.8064,VALID,74,VALID,0.548047,
2010-08-19, 00:12:04,VALID,1004.28,VALID,0,INVALID,115.295,VALID,0,VALID,25.8259,VALID,60,VALID,0.623047,
2010-08-19, 00:13:04,VALID,1004.25,VALID,0,INVALID,111.565,VALID,0,VALID,25.9252,VALID,65,VALID,0.283984,
2010-08-19, 00:14:04,VALID,1004.22,VALID,0,VALID,104,VALID,0,VALID,25.9427,VALID,82,VALID,0.357422,
2010-08-19, 00:15:04,VALID,1004.2,VALID,0,VALID,98.2523,VALID,0,VALID,25.9817,VALID,44,VALID,0.282422,
2010-08-19, 00:16:04,VALID,1004.21,VALID,0,VALID,95.6738,VALID,0,VALID,25.9213,VALID,44,VALID,0.405859,
2010-08-19, 00:17:04,VALID,1004.2,VALID,0,VALID,94.9414,VALID,0,VALID,25.9232,VALID,16,VALID,0.685156,
2010-08-19, 00:18:04,VALID,1004.2,VALID,0,VALID,96.162,VALID,0,VALID,25.8843,VALID,11,VALID,0.495703,
2010-08-19, 00:19:04,VALID,1004.17,VALID,0,VALID,95.8035,VALID,0,VALID,25.8863,VALID,11,VALID,0.577344,
2010-08-19, 00:20:04,VALID,1004.17,VALID,0,VALID,99.7324,VALID,0,VALID,25.8453,VALID,9,VALID,0.48125,
2010-08-19, 00:21:04,VALID,1004.16,VALID,0,VALID,100.991,VALID,0,VALID,25.8259,VALID,359,VALID,0.807422,
2010-08-19, 00:22:04,VALID,1004.2,VALID,0,VALID,101.846,VALID,0,VALID,25.785,VALID,25,VALID,0.985937,
2010-08-19, 00:23:04,VALID,1004.19,VALID,0,INVALID,110.131,VALID,0,VALID,25.8453,VALID,64,VALID,0.821094,
2010-08-19, 00:24:04,VALID,1004.17,VALID,0,VALID,104,VALID,0,VALID,25.9427,VALID,55,VALID,0.810938,
2010-08-19, 00:25:04,VALID,1004.15,VALID,0,VALID,96.7189,VALID,0,VALID,26.0771,VALID,65,VALID,1.47148,
2010-08-19, 00:26:04,VALID,1004.14,VALID,0,VALID,91.3711,VALID,0,VALID,26.155,VALID,33,VALID,0.304297,
2010-08-19, 00:27:04,VALID,1004.15,VALID,0,VALID,89.647,VALID,0,VALID,26.155,VALID,35,VALID,0.464844,
2010-08-19, 00:28:04,VALID,1004.12,VALID,0,VALID,89.7233,VALID,0,VALID,26.155,VALID,38,VALID,0.674219,
2010-08-19, 00:29:04,VALID,1004.12,VALID,0,VALID,89.296,VALID,0.100563,VALID,26.1745,VALID,26,VALID,0.424609,
2010-08-19, 00:30:04,VALID,1004.11,VALID,0,VALID,89.0214,VALID,0,VALID,26.1745,VALID,27,VALID,0.398828,
2010-08-19, 00:31:04,VALID,1004.09,VALID,0,VALID,89.3189,VALID,0,VALID,26.1335,VALID,10,VALID,1.03945,
2010-08-19, 00:32:04,VALID,1004.09,VALID,0,VALID,89.0367,VALID,0,VALID,26.2349,VALID,42,VALID,0.6625,
2010-08-19, 00:33:04,VALID,1004.09,VALID,0,VALID,88.5637,VALID,0,VALID,26.2329,VALID,71,VALID,0.424219,
2010-08-19, 00:34:04,VALID,1004.09,VALID,0,VALID,88.3729,VALID,0,VALID,26.2329,VALID,46,VALID,0.535547,
2010-08-19, 00:35:04,VALID,1004.1,VALID,0,VALID,88.1899,VALID,0,VALID,26.2329,VALID,45,VALID,0.59375,
2010-08-19, 00:36:04,VALID,1004.07,VALID,0,VALID,88.2051,VALID,0,VALID,26.2134,VALID,73,VALID,0.507813,
2010-08-19, 00:37:04,VALID,1004.11,VALID,0,VALID,88.2585,VALID,0,VALID,26.194,VALID,37,VALID,0.614844,
2010-08-19, 00:38:04,VALID,1004.08,VALID,0,VALID,88.3272,VALID,0,VALID,26.153,VALID,360,VALID,0.639453,
2010-08-19, 00:39:04,VALID,1004.06,VALID,0,VALID,88.3577,VALID,0,VALID,26.116,VALID,46,VALID,0.337891,
2010-08-19, 00:40:04,VALID,1004.04,VALID,0,VALID,88.7468,VALID,0,VALID,26.0576,VALID,38,VALID,0.669922,
2010-08-19, 00:41:04,VALID,1004.04,VALID,0,VALID,89.113,VALID,0,VALID,26.0187,VALID,37,VALID,0.281641,
2010-08-19, 00:42:04,VALID,1004.07,VALID,0,VALID,89.5402,VALID,0.100563,VALID,25.9777,VALID,37,VALID,0.410547,
2010-08-19, 00:43:04,VALID,1004.03,VALID,0,VALID,89.8911,VALID,0.100563,VALID,25.9408,VALID,37,VALID,0.656641,
2010-08-19, 00:44:04,VALID,1004.03,VALID,0,VALID,91.127,VALID,0,VALID,25.9408,VALID,35,VALID,0.635938,
2010-08-19, 00:45:04,VALID,1004.02,VALID,0,VALID,90.9515,VALID,0,VALID,25.9213,VALID,38,VALID,0.316406,
2010-08-19, 00:46:04,VALID,1003.97,VALID,0,VALID,91.0431,VALID,0,VALID,25.8414,VALID,38,VALID,0.317187,
2010-08-19, 00:47:04,VALID,1003.93,VALID,0,VALID,93.2631,VALID,0,VALID,25.8434,VALID,17,VALID,0.234375,
2010-08-19, 00:48:04,VALID,1003.9,VALID,0,VALID,95.2161,VALID,0.100563,VALID,25.8823,VALID,27,VALID,0.405078,
2010-08-19, 00:49:04,VALID,1003.89,VALID,0,VALID,94.3921,VALID,0.100563,VALID,25.8629,VALID,27,VALID,0.425781,
2010-08-19, 00:50:04,VALID,1003.84,VALID,0,VALID,94.3006,VALID,0,VALID,25.8434,VALID,26,VALID,0.509375,
2010-08-19, 00:51:04,VALID,1003.85,VALID,0,VALID,96.635,VALID,0,VALID,25.8239,VALID,25,VALID,0.603906,
2010-08-19, 00:52:04,VALID,1003.84,VALID,0,VALID,99.5569,VALID,0,VALID,25.8434,VALID,33,VALID,0.634766,
2010-08-19, 00:53:04,VALID,1003.81,VALID,0,VALID,99.2441,VALID,0,VALID,25.8025,VALID,349,VALID,0.7625,
2010-08-19, 00:54:04,VALID,1003.79,VALID,0,VALID,101.075,VALID,0,VALID,25.8219,VALID,35,VALID,0.563672,
2010-08-19, 00:55:04,VALID,1003.74,VALID,0,VALID,97.1996,VALID,0,VALID,25.8629,VALID,35,VALID,0.526172,
2010-08-19, 00:56:04,VALID,1003.71,VALID,0,VALID,96.2917,VALID,0,VALID,25.8239,VALID,35,VALID,0.358594,
2010-08-19, 00:57:04,VALID,1003.73,VALID,0,VALID,100.121,VALID,0.100563,VALID,25.8239,VALID,358,VALID,0.548828,
2010-08-19, 00:58:04,VALID,1003.68,VALID,0,VALID,100.755,VALID,0,VALID,25.8648,VALID,17,VALID,0.844141,
2010-08-19, 00:59:04,VALID,1003.69,VALID,0,VALID,99.2746,VALID,0,VALID,25.8843,VALID,24,VALID,0.815625,
2010-08-19, 01:00:04,VALID,1003.7,VALID,0,VALID,94.8499,VALID,0,VALID,25.8648,VALID,22,VALID,0.582812,
2010-08-19, 01:01:04,VALID,1003.69,VALID,0,VALID,96.429,VALID,0,VALID,25.8239,VALID,4,VALID,0.334766,
2010-08-19, 01:02:04,VALID,1003.71,VALID,0,VALID,101.144,VALID,0.100563,VALID,25.8434,VALID,26,VALID,0.883984,
2010-08-19, 01:03:04,VALID,1003.71,VALID,0,VALID,98.1074,VALID,0,VALID,25.9817,VALID,49,VALID,0.951172,
2010-08-19, 01:04:04,VALID,1003.74,VALID,0,VALID,93.6369,VALID,0.100563,VALID,26.0381,VALID,57,VALID,0.715234,
2010-08-19, 01:05:04,VALID,1003.76,VALID,0,VALID,90.9668,VALID,0,VALID,26.1355,VALID,53,VALID,0.323047,
2010-08-19, 01:06:04,VALID,1003.77,VALID,0,VALID,89.6165,VALID,0,VALID,26.155,VALID,21,VALID,0.860156,
2010-08-19, 01:07:04,VALID,1003.77,VALID,0,VALID,88.7239,VALID,0,VALID,26.155,VALID,14,VALID,0.696094,
2010-08-19, 01:08:04,VALID,1003.8,VALID,0,VALID,88.8612,VALID,0,VALID,26.155,VALID,13,VALID,0.916797,
2010-08-19, 01:09:04,VALID,1003.82,VALID,0,VALID,88.8612,VALID,0,VALID,26.1765,VALID,76,VALID,1.02813,
2010-08-19, 01:10:04,VALID,1003.86,VALID,0,VALID,88.7697,VALID,0.100563,VALID,26.2134,VALID,74,VALID,0.962891,
2010-08-19, 01:11:04,VALID,1003.85,VALID,0,VALID,88.2661,VALID,0,VALID,26.2913,VALID,82,VALID,0.586719,
2010-08-19, 01:12:04,VALID,1003.83,VALID,0,VALID,87.961,VALID,0,VALID,26.2719,VALID,49,VALID,0.290234,
2010-08-19, 01:13:04,VALID,1003.82,VALID,0,VALID,87.9305,VALID,0,VALID,26.2719,VALID,68,VALID,0.445703,
2010-08-19, 01:14:04,VALID,1003.81,VALID,0,VALID,87.8771,VALID,0,VALID,26.2719,VALID,63,VALID,0.488281,
2010-08-19, 01:15:04,VALID,1003.81,VALID,0,VALID,87.6711,VALID,0.100563,VALID,26.2524,VALID,39,VALID,0.856641,
2010-08-19, 01:16:05,VALID,1003.79,VALID,0,VALID,87.8389,VALID,0.100563,VALID,26.2134,VALID,57,VALID,0.811328,
2010-08-19, 01:17:05,VALID,1003.77,VALID,0,VALID,87.816,VALID,0,VALID,26.1959,VALID,25,VALID,0.618359,
2010-08-19, 01:18:05,VALID,1003.78,VALID,0,VALID,88.0831,VALID,0.100563,VALID,26.1141,VALID,28,VALID,0.280078,
2010-08-19, 01:19:05,VALID,1003.74,VALID,0,VALID,88.4874,VALID,0,VALID,26.1355,VALID,59,VALID,0.54375,
2010-08-19, 01:20:05,VALID,1003.78,VALID,0,VALID,88.6171,VALID,0,VALID,26.1355,VALID,66,VALID,0.539063,
2010-08-19, 01:21:05,VALID,1003.75,VALID,0,VALID,88.7315,VALID,0.100563,VALID,26.2134,VALID,99,VALID,1.50977,
2010-08-19, 01:22:05,VALID,1003.75,VALID,0,VALID,88.2738,VALID,0.100563,VALID,26.2524,VALID,104,VALID,0.916406,
2010-08-19, 01:23:05,VALID,1003.79,VALID,0,VALID,87.9839,VALID,0,VALID,26.2524,VALID,62,VALID,0.439453,
2010-08-19, 01:24:05,VALID,1003.78,VALID,0,VALID,87.9534,VALID,0,VALID,26.2524,VALID,79,VALID,0.601172,
2010-08-19, 01:25:05,VALID,1003.8,VALID,0,VALID,87.8923,VALID,0,VALID,26.2719,VALID,96,VALID,0.588281,
2010-08-19, 01:26:05,VALID,1003.81,VALID,0,VALID,87.7398,VALID,0,VALID,26.2524,VALID,22,VALID,0.929688,
2010-08-19, 01:27:05,VALID,1003.81,VALID,0,VALID,87.7932,VALID,0,VALID,26.194,VALID,51,VALID,0.460156,
2010-08-19, 01:28:05,VALID,1003.82,VALID,0,VALID,88.0525,VALID,0,VALID,26.194,VALID,101,VALID,0.373437,
2010-08-19, 01:29:05,VALID,1003.8,VALID,0,VALID,87.8466,VALID,0,VALID,26.155,VALID,27,VALID,0.641016,
2010-08-19, 01:30:05,VALID,1003.82,VALID,0,VALID,87.9762,VALID,0,VALID,26.0966,VALID,352,VALID,0.563281,
2010-08-19, 01:31:05,VALID,1003.81,VALID,0,VALID,88.7239,VALID,0.100563,VALID,26.0771,VALID,61,VALID,0.915234,
2010-08-19, 01:32:05,VALID,1003.82,VALID,0,VALID,88.64,VALID,0.100563,VALID,26.1355,VALID,99,VALID,0.700391,
2010-08-19, 01:33:05,VALID,1003.83,VALID,0,VALID,88.3043,VALID,0,VALID,26.1725,VALID,96,VALID,1.20898,
2010-08-19, 01:34:05,VALID,1003.83,VALID,0,VALID,87.9076,VALID,0.100563,VALID,26.2524,VALID,68,VALID,1.19062,
2010-08-19, 01:35:05,VALID,1003.82,VALID,0,VALID,87.5643,VALID,0,VALID,26.2913,VALID,101,VALID,0.825,
2010-08-19, 01:36:05,VALID,1003.78,VALID,0,VALID,87.3659,VALID,0,VALID,26.3108,VALID,87,VALID,0.848437,
2010-08-19, 01:37:05,VALID,1003.78,VALID,0,VALID,87.2515,VALID,0,VALID,26.3108,VALID,108,VALID,0.525,
2010-08-19, 01:38:05,VALID,1003.74,VALID,0,VALID,87.1905,VALID,0.100563,VALID,26.3108,VALID,39,VALID,0.732422,
2010-08-19, 01:39:05,VALID,1003.72,VALID,0,VALID,87.1218,VALID,0.100563,VALID,26.3108,VALID,84,VALID,0.449609,
2010-08-19, 01:40:05,VALID,1003.73,VALID,0,VALID,87.0913,VALID,0,VALID,26.2719,VALID,40,VALID,0.382031,
2010-08-19, 01:41:05,VALID,1003.7,VALID,0,VALID,87.282,VALID,0,VALID,26.2719,VALID,44,VALID,1.1957,
2010-08-19, 01:42:05,VALID,1003.68,VALID,0,VALID,87.2057,VALID,0,VALID,26.3108,VALID,73,VALID,1.54414,
2010-08-19, 01:43:05,VALID,1003.68,VALID,0,VALID,86.9769,VALID,0,VALID,26.2913,VALID,39,VALID,0.677734,
2010-08-19, 01:44:05,VALID,1003.64,VALID,0,VALID,87.1523,VALID,0,VALID,26.3128,VALID,69,VALID,0.727734,
2010-08-19, 01:45:05,VALID,1003.66,VALID,0,VALID,87.1752,VALID,0,VALID,26.2524,VALID,86,VALID,0.310156,
2010-08-19, 01:46:05,VALID,1003.66,VALID,0,VALID,87.1752,VALID,0,VALID,26.2329,VALID,62,VALID,0.379297,
2010-08-19, 01:47:05,VALID,1003.66,VALID,0,VALID,87.3507,VALID,0,VALID,26.2544,VALID,83,VALID,1.31758,
2010-08-19, 01:48:05,VALID,1003.64,VALID,0,VALID,87.3354,VALID,0.100563,VALID,26.2524,VALID,99,VALID,0.658203,
2010-08-19, 01:49:05,VALID,1003.65,VALID,0,VALID,87.343,VALID,0,VALID,26.2544,VALID,27,VALID,0.310547,
2010-08-19, 01:50:05,VALID,1003.68,VALID,0,VALID,87.4804,VALID,0.100563,VALID,26.2524,VALID,84,VALID,1.10273,
2010-08-19, 01:51:05,VALID,1003.64,VALID,0,VALID,87.4193,VALID,0,VALID,26.2719,VALID,97,VALID,0.711719,
2010-08-19, 01:52:05,VALID,1003.62,VALID,0,VALID,87.3278,VALID,0,VALID,26.2524,VALID,55,VALID,0.187891,
2010-08-19, 01:53:05,VALID,1003.59,VALID,0,VALID,87.3812,VALID,0,VALID,26.2933,VALID,93,VALID,0.920313,
2010-08-19, 01:54:05,VALID,1003.57,VALID,0,VALID,87.2896,VALID,0,VALID,26.2913,VALID,77,VALID,0.744922,
2010-08-19, 01:55:05,VALID,1003.54,VALID,0,VALID,87.0913,VALID,0,VALID,26.3283,VALID,104,VALID,1.3125,
2010-08-19, 01:56:05,VALID,1003.52,VALID,0,VALID,86.9311,VALID,0,VALID,26.3498,VALID,21,VALID,0.758984,
2010-08-19, 01:57:05,VALID,1003.53,VALID,0,VALID,86.9082,VALID,0,VALID,26.2913,VALID,71,VALID,0.89375,
2010-08-19, 01:58:05,VALID,1003.5,VALID,0,VALID,87.1752,VALID,0,VALID,26.2739,VALID,35,VALID,0.786719,
2010-08-19, 01:59:05,VALID,1003.5,VALID,0,VALID,87.3812,VALID,0,VALID,26.194,VALID,29,VALID,0.438281,
2010-08-19, 02:00:05,VALID,1003.49,VALID,0,VALID,87.6101,VALID,0,VALID,26.194,VALID,69,VALID,0.662891,
2010-08-19, 02:01:05,VALID,1003.42,VALID,0,VALID,87.6253,VALID,0,VALID,26.1959,VALID,76,VALID,0.451953,
2010-08-19, 02:02:05,VALID,1003.42,VALID,0,VALID,87.7474,VALID,0,VALID,26.194,VALID,93,VALID,1.70859,
2010-08-19, 02:03:05,VALID,1003.44,VALID,0,VALID,87.5872,VALID,0,VALID,26.2524,VALID,73,VALID,1.02734,
2010-08-19, 02:04:05,VALID,1003.44,VALID,0,VALID,87.3583,VALID,0,VALID,26.3128,VALID,106,VALID,0.876562,
2010-08-19, 02:05:05,VALID,1003.44,VALID,0,VALID,87.2134,VALID,0,VALID,26.3108,VALID,72,VALID,0.857031,
2010-08-19, 02:06:05,VALID,1003.4,VALID,0,VALID,86.9616,VALID,0,VALID,26.3283,VALID,31,VALID,0.773438,
2010-08-19, 02:07:05,VALID,1003.41,VALID,0,VALID,86.7251,VALID,0,VALID,26.4297,VALID,107,VALID,1.23555,
2010-08-19, 02:08:05,VALID,1003.4,VALID,0,VALID,86.3437,VALID,0.100563,VALID,26.4646,VALID,112,VALID,1.26406,
2010-08-19, 02:09:05,VALID,1003.42,VALID,0,VALID,86.0538,VALID,0.100563,VALID,26.5056,VALID,84,VALID,0.329688,
2010-08-19, 02:10:05,VALID,1003.38,VALID,0,VALID,85.9927,VALID,0,VALID,26.5271,VALID,84,VALID,0.466406,
2010-08-19, 02:11:05,VALID,1003.37,VALID,0,VALID,86.0385,VALID,0,VALID,26.5076,VALID,84,VALID,0.540234,
2010-08-19, 02:12:05,VALID,1003.36,VALID,0,VALID,85.9927,VALID,0,VALID,26.4861,VALID,71,VALID,1.14375,
2010-08-19, 02:13:05,VALID,1003.35,VALID,0,VALID,85.9317,VALID,0,VALID,26.5446,VALID,116,VALID,1.22031,
2010-08-19, 02:14:05,VALID,1003.36,VALID,0,VALID,85.8173,VALID,0.100563,VALID,26.5271,VALID,77,VALID,0.693359,
2010-08-19, 02:15:05,VALID,1003.39,VALID,0,VALID,85.8402,VALID,0,VALID,26.5056,VALID,93,VALID,0.705078,
2010-08-19, 02:16:05,VALID,1003.38,VALID,0,VALID,85.8249,VALID,0,VALID,26.5271,VALID,42,VALID,0.655078,
2010-08-19, 02:17:05,VALID,1003.38,VALID,0,VALID,85.741,VALID,0,VALID,26.6245,VALID,105,VALID,2.03789,
2010-08-19, 02:18:05,VALID,1003.38,VALID,0,VALID,85.1993,VALID,0,VALID,26.6809,VALID,30,VALID,1.32891,
2010-08-19, 02:19:05,VALID,1003.37,VALID,0,VALID,84.9171,VALID,0,VALID,26.7004,VALID,82,VALID,0.919141,
2010-08-19, 02:20:05,VALID,1003.39,VALID,0,VALID,84.8103,VALID,0,VALID,26.7219,VALID,30,VALID,1.04492,
2010-08-19, 02:21:05,VALID,1003.39,VALID,0,VALID,84.7874,VALID,0,VALID,26.7199,VALID,115,VALID,0.698828,
2010-08-19, 02:22:05,VALID,1003.39,VALID,0,VALID,84.7263,VALID,0,VALID,26.7004,VALID,72,VALID,1.24805,
2010-08-19, 02:23:05,VALID,1003.43,VALID,0,VALID,84.5356,VALID,0,VALID,26.7804,VALID,49,VALID,1.66562,
2010-08-19, 02:24:05,VALID,1003.44,VALID,0,VALID,84.3373,VALID,0,VALID,26.7998,VALID,103,VALID,1.74922,
2010-08-19, 02:25:05,VALID,1003.43,VALID,0,VALID,84.055,VALID,0,VALID,26.8583,VALID,112,VALID,1.96211,
2010-08-19, 02:26:05,VALID,1003.44,VALID,0,VALID,83.9101,VALID,0,VALID,26.8368,VALID,111,VALID,0.664453,
2010-08-19, 02:27:05,VALID,1003.45,VALID,0,VALID,83.9024,VALID,0,VALID,26.8368,VALID,87,VALID,1.8832,
2010-08-19, 02:28:05,VALID,1003.48,VALID,0,VALID,83.9787,VALID,0,VALID,26.8173,VALID,95,VALID,0.726172,
2010-08-19, 02:29:05,VALID,1003.47,VALID,0,VALID,84.1008,VALID,0,VALID,26.7998,VALID,38,VALID,1.05313,
2010-08-19, 02:30:05,VALID,1003.53,VALID,0,VALID,84.2076,VALID,0,VALID,26.7804,VALID,96,VALID,1.80234,
2010-08-19, 02:31:05,VALID,1003.49,VALID,0,VALID,84.1923,VALID,0,VALID,26.7804,VALID,69,VALID,1.18828,
2010-08-19, 02:32:05,VALID,1003.48,VALID,0,VALID,84.1923,VALID,0,VALID,26.7589,VALID,89,VALID,0.577344,
2010-08-19, 02:33:05,VALID,1003.48,VALID,0,VALID,84.3068,VALID,0,VALID,26.7394,VALID,51,VALID,0.864062,
2010-08-19, 02:34:05,VALID,1003.48,VALID,0,VALID,84.3068,VALID,0,VALID,26.7199,VALID,101,VALID,1.55469,
2010-08-19, 02:35:05,VALID,1003.46,VALID,0,VALID,84.1618,VALID,0,VALID,26.7589,VALID,79,VALID,1.16523,
2010-08-19, 02:36:05,VALID,1003.44,VALID,0,VALID,84.116,VALID,0,VALID,26.7998,VALID,92,VALID,1.34023,
2010-08-19, 02:37:05,VALID,1003.41,VALID,0,VALID,84.0474,VALID,0,VALID,26.7998,VALID,86,VALID,1.60625,
2010-08-19, 02:38:05,VALID,1003.41,VALID,0,VALID,83.9329,VALID,0,VALID,26.8388,VALID,71,VALID,0.828906,
2010-08-19, 02:39:05,VALID,1003.43,VALID,0,VALID,83.9635,VALID,0,VALID,26.8388,VALID,72,VALID,1.47734,
2010-08-19, 02:40:05,VALID,1003.45,VALID,0,VALID,84.0245,VALID,0,VALID,26.8173,VALID,93,VALID,1.94961,
2010-08-19, 02:41:05,VALID,1003.39,VALID,0,VALID,84.116,VALID,0,VALID,26.7589,VALID,68,VALID,0.582422,
2010-08-19, 02:42:05,VALID,1003.42,VALID,0,VALID,84.2457,VALID,0,VALID,26.7609,VALID,40,VALID,1.73984,
2010-08-19, 02:43:05,VALID,1003.39,VALID,0,VALID,84.3525,VALID,0,VALID,26.7609,VALID,85,VALID,1.30313,
2010-08-19, 02:44:05,VALID,1003.41,VALID,0,VALID,84.3907,VALID,0,VALID,26.7804,VALID,115,VALID,2.16797,
2010-08-19, 02:45:05,VALID,1003.44,VALID,0,VALID,84.2228,VALID,0,VALID,26.7978,VALID,71,VALID,1.23281,
2010-08-19, 02:46:05,VALID,1003.43,VALID,0,VALID,84.2381,VALID,0,VALID,26.7783,VALID,85,VALID,0.742969,
2010-08-19, 02:47:05,VALID,1003.43,VALID,0,VALID,84.2686,VALID,0,VALID,26.7804,VALID,80,VALID,1.16758,
2010-08-19, 02:48:05,VALID,1003.42,VALID,0,VALID,84.383,VALID,0,VALID,26.7414,VALID,56,VALID,0.861719,
2010-08-19, 02:49:05,VALID,1003.36,VALID,0,VALID,84.4212,VALID,0,VALID,26.7414,VALID,57,VALID,2.09492,
2010-08-19, 02:50:05,VALID,1003.35,VALID,0,VALID,84.5051,VALID,0,VALID,26.7219,VALID,360,VALID,0.879297,
2010-08-19, 02:51:05,VALID,1003.35,VALID,0,VALID,84.7035,VALID,0,VALID,26.642,VALID,51,VALID,0.646875,
2010-08-19, 02:52:05,VALID,1003.33,VALID,0,VALID,84.9476,VALID,0,VALID,26.5835,VALID,77,VALID,0.313281,
2010-08-19, 02:53:05,VALID,1003.33,VALID,0,VALID,85.2375,VALID,0,VALID,26.5466,VALID,78,VALID,0.533594,
2010-08-19, 02:54:05,VALID,1003.34,VALID,0,VALID,85.4129,VALID,0,VALID,26.5251,VALID,88,VALID,0.975,
2010-08-19, 02:55:05,VALID,1003.32,VALID,0,VALID,85.5426,VALID,0,VALID,26.5096,VALID,87,VALID,1.03789,
2010-08-19, 02:56:05,VALID,1003.33,VALID,0,VALID,85.6266,VALID,0,VALID,26.4687,VALID,85,VALID,1.60781,
2010-08-19, 02:57:05,VALID,1003.27,VALID,0,VALID,85.6342,VALID,0,VALID,26.4687,VALID,82,VALID,0.380469,
2010-08-19, 02:58:05,VALID,1003.26,VALID,0,VALID,85.7334,VALID,0,VALID,26.4492,VALID,75,VALID,1.4832,
2010-08-19, 02:59:05,VALID,1003.24,VALID,0,VALID,85.7639,VALID,0,VALID,26.4277,VALID,74,VALID,0.560156,
2010-08-19, 03:00:05,VALID,1003.24,VALID,0,VALID,85.8096,VALID,0,VALID,26.4102,VALID,82,VALID,1.33906,
2010-08-19, 03:01:05,VALID,1003.16,VALID,0,VALID,85.7868,VALID,0,VALID,26.4297,VALID,93,VALID,1.68789,
2010-08-19, 03:02:05,VALID,1003.15,VALID,0,VALID,85.4206,VALID,0,VALID,26.5076,VALID,72,VALID,2.72773,
2010-08-19, 03:03:05,VALID,1003.14,VALID,0,VALID,85.268,VALID,0,VALID,26.5076,VALID,110,VALID,1.53203,
2010-08-19, 03:04:05,VALID,1003.14,VALID,0,VALID,85.1688,VALID,0,VALID,26.5056,VALID,33,VALID,0.713281,
2010-08-19, 03:05:05,VALID,1003.14,VALID,0,VALID,85.2299,VALID,0,VALID,26.4861,VALID,82,VALID,1.59336,
2010-08-19, 03:06:05,VALID,1003.13,VALID,0,VALID,85.3214,VALID,0,VALID,26.4687,VALID,88,VALID,0.703125,
2010-08-19, 03:07:05,VALID,1003.11,VALID,0,VALID,85.4053,VALID,0,VALID,26.4297,VALID,77,VALID,0.798828,
2010-08-19, 03:08:05,VALID,1003.12,VALID,0,VALID,85.4969,VALID,0,VALID,26.4102,VALID,80,VALID,1.66602,
2010-08-19, 03:09:05,VALID,1003.07,VALID,0,VALID,85.596,VALID,0,VALID,26.3907,VALID,348,VALID,0.719922,
2010-08-19, 03:10:05,VALID,1003.07,VALID,0,VALID,85.535,VALID,0,VALID,26.4297,VALID,48,VALID,1.76641,
2010-08-19, 03:11:05,VALID,1003.14,VALID,0,VALID,85.3977,VALID,0,VALID,26.4082,VALID,105,VALID,1.87461,
2010-08-19, 03:12:05,VALID,1003.14,VALID,0,VALID,85.2299,VALID,0,VALID,26.4881,VALID,108,VALID,1.63281,
2010-08-19, 03:13:05,VALID,1003.14,VALID,0,VALID,85.1078,VALID,0,VALID,26.4881,VALID,86,VALID,1.39414,
2010-08-19, 03:14:05,VALID,1003.14,VALID,0,VALID,85.0391,VALID,0,VALID,26.4861,VALID,73,VALID,1.26797,
2010-08-19, 03:15:05,VALID,1003.17,VALID,0,VALID,85.1078,VALID,0,VALID,26.4881,VALID,68,VALID,2.07266,
2010-08-19, 03:16:05,VALID,1003.17,VALID,0,VALID,85.0773,VALID,0,VALID,26.5076,VALID,55,VALID,0.989844,
2010-08-19, 03:17:05,VALID,1003.13,VALID,0,VALID,85.0086,VALID,0,VALID,26.4861,VALID,30,VALID,1.40859,
2010-08-19, 03:18:05,VALID,1003.09,VALID,0,VALID,85.0544,VALID,0,VALID,26.5486,VALID,91,VALID,1.36875,
2010-08-19, 03:19:05,VALID,1003.08,VALID,0,VALID,84.9628,VALID,0,VALID,26.5466,VALID,114,VALID,1.21445,
2010-08-19, 03:20:05,VALID,1003.09,VALID,0,VALID,84.9018,VALID,0,VALID,26.5661,VALID,19,VALID,0.623828,
2010-08-19, 03:21:05,VALID,1003.07,VALID,0,VALID,84.8255,VALID,0,VALID,26.5661,VALID,81,VALID,1.65313,
2010-08-19, 03:22:05,VALID,1003.1,VALID,0,VALID,84.8103,VALID,0,VALID,26.5446,VALID,99,VALID,1.15625,
2010-08-19, 03:23:05,VALID,1003.09,VALID,0,VALID,84.7492,VALID,0,VALID,26.5835,VALID,94,VALID,1.8168,
2010-08-19, 03:24:05,VALID,1003.12,VALID,0,VALID,84.7492,VALID,0,VALID,26.6245,VALID,87,VALID,1.85547,
2010-08-19, 03:25:05,VALID,1003.13,VALID,0,VALID,84.5738,VALID,0,VALID,26.683,VALID,66,VALID,1.03359,
2010-08-19, 03:26:05,VALID,1003.13,VALID,0,VALID,84.4975,VALID,0,VALID,26.7024,VALID,97,VALID,1.46172,
2010-08-19, 03:27:05,VALID,1003.12,VALID,0,VALID,84.4136,VALID,0,VALID,26.7219,VALID,82,VALID,1.05898,
2010-08-19, 03:28:05,VALID,1003.12,VALID,0,VALID,84.3296,VALID,0,VALID,26.7414,VALID,52,VALID,0.769531,
2010-08-19, 03:29:05,VALID,1003.12,VALID,0,VALID,84.2991,VALID,0,VALID,26.7394,VALID,96,VALID,1.19531,
2010-08-19, 03:30:05,VALID,1003.13,VALID,0,VALID,84.2686,VALID,0,VALID,26.7414,VALID,100,VALID,0.863281,
2010-08-19, 03:31:05,VALID,1003.15,VALID,0,VALID,84.4136,VALID,0,VALID,26.7004,VALID,354,VALID,0.771484,
2010-08-19, 03:32:05,VALID,1003.16,VALID,0,VALID,84.5585,VALID,0.100563,VALID,26.7219,VALID,74,VALID,2.63438,
2010-08-19, 03:33:05,VALID,1003.16,VALID,0,VALID,84.322,VALID,0,VALID,26.8583,VALID,78,VALID,2.2082,
2010-08-19, 03:34:05,VALID,1003.18,VALID,0,VALID,83.9711,VALID,0,VALID,26.9167,VALID,102,VALID,1.48477,
2010-08-19, 03:35:05,VALID,1003.18,VALID,0,VALID,83.8414,VALID,0,VALID,26.8973,VALID,100,VALID,0.989844,
2010-08-19, 03:36:05,VALID,1003.2,VALID,0,VALID,83.9024,VALID,0.100563,VALID,26.8563,VALID,80,VALID,1.22148,
2010-08-19, 03:37:05,VALID,1003.22,VALID,0,VALID,84.0397,VALID,0,VALID,26.8778,VALID,96,VALID,1.51641,
2010-08-19, 03:38:05,VALID,1003.2,VALID,0,VALID,83.9558,VALID,0,VALID,26.8973,VALID,115,VALID,1.32266,
2010-08-19, 03:39:05,VALID,1003.19,VALID,0,VALID,83.9406,VALID,0,VALID,26.8973,VALID,111,VALID,1.26836,
2010-08-19, 03:40:05,VALID,1003.18,VALID,0,VALID,84.0779,VALID,0,VALID,26.8368,VALID,106,VALID,1.38594,
2010-08-19, 03:41:05,VALID,1003.17,VALID,0,VALID,84.1389,VALID,0,VALID,26.8173,VALID,81,VALID,0.964063,
2010-08-19, 03:42:05,VALID,1003.18,VALID,0,VALID,84.2076,VALID,0,VALID,26.7978,VALID,71,VALID,0.903906,
2010-08-19, 03:43:05,VALID,1003.16,VALID,0,VALID,84.3296,VALID,0,VALID,26.7998,VALID,89,VALID,1.84961,
2010-08-19, 03:44:05,VALID,1003.11,VALID,0,VALID,84.4288,VALID,0,VALID,26.7804,VALID,56,VALID,0.856641,